Date,TemperatureHighF,TemperatureAvgF,TemperatureLowF,DewpointHighF,DewpointAvgF,DewpointLowF,HumidityHigh,HumidityAvg,HumidityLow,PressureMaxIn,PressureMinIn,WindSpeedMaxMPH,WindSpeedAvgMPH,GustSpeedMaxMPH,PrecipitationSumIn
2013-7-1,81.6,77.2,72.9,73.0,71.4,70.0,93,83,73,30.00,29.93,3,1,5,0.09
2013-7-2,75.3,72.0,69.3,72.1,70.3,68.4,98,94,87,30.19,29.99,4,1,7,0.21
2013-7-3,83.4,73.5,69.3,76.2,71.6,68.7,98,94,72,30.26,30.17,3,1,6,1.23
2013-7-4,85.7,76.7,70.7,77.4,72.5,0.0,98,88,64,30.29,30.20,5,2,9,0.09
2013-7-5,85.7,76.7,69.5,76.9,72.5,0.0,98,87,68,30.28,30.18,4,1,10,0.11
2013-7-6,87.6,78.1,70.6,76.8,72.2,0.0,97,83,64,30.24,30.13,6,1,12,0.01
2013-7-7,86.8,75.9,0.0,76.3,70.9,0.0,96,85,66,30.17,30.05,7,2,14,0.08
2013-7-8,87.0,73.9,67.5,73.4,69.2,66.0,97,86,57,30.16,30.10,5,0,9,0.82
2013-7-9,86.6,77.2,71.0,76.4,71.0,0.0,93,82,65,30.14,30.06,3,0,5,0.02
2013-7-10,87.6,75.4,70.6,79.5,72.8,69.5,97,92,71,30.08,29.93,6,1,11,0.92
2013-7-11,84.1,74.2,0.0,75.5,70.9,0.0,98,90,69,29.96,29.89,4,1,7,1.20
2013-7-12,68.2,67.5,67.0,67.3,66.2,65.5,97,96,95,30.08,30.02,3,0,4,0.00
2013-7-13,83.4,72.8,0.0,73.9,68.5,0.0,96,86,69,30.27,30.07,4,0,8,0.19
2013-7-14,87.0,77.9,70.8,75.5,71.9,0.0,98,83,62,30.37,30.27,3,0,5,0.19
2013-7-15,91.5,80.5,71.2,76.6,72.4,69.7,97,78,53,30.35,30.25,3,0,5,0.01
2013-7-16,92.1,82.2,74.2,78.5,73.8,0.0,91,77,58,30.29,30.21,4,1,7,0.07
2013-7-17,90.7,80.7,74.7,79.7,75.3,71.0,93,84,60,30.26,30.15,4,0,7,0.33
2013-7-18,92.9,82.7,75.3,80.6,75.4,71.6,93,79,63,30.19,30.07,3,0,6,0.01
2013-7-19,93.0,82.5,75.8,81.5,74.8,0.0,88,78,62,30.09,29.95,5,1,9,0.00
2013-7-20,91.6,78.9,73.2,78.0,72.7,68.2,94,82,58,29.99,29.89,4,1,8,0.00
2013-7-21,90.0,76.6,71.2,77.0,70.8,67.9,95,83,60,30.00,29.94,8,0,16,0.11
2013-7-22,86.7,76.7,70.1,77.5,72.4,69.0,98,87,70,29.99,29.81,4,1,8,0.01
2013-7-23,88.9,78.8,71.3,74.1,70.5,66.7,96,77,56,29.83,29.72,4,1,7,0.00
2013-7-24,85.3,75.3,67.7,72.6,68.3,65.2,96,80,60,29.96,29.73,6,1,9,0.28
2013-7-25,79.0,70.0,62.8,66.5,60.8,55.3,96,73,53,30.09,29.93,4,1,9,0.28
2013-7-26,82.1,71.0,60.4,67.2,62.3,56.7,94,75,52,30.14,30.06,4,1,7,0.00
2013-7-27,77.1,71.2,66.0,71.1,67.3,63.8,94,88,78,30.09,29.97,3,1,9,0.01
2013-7-28,84.4,72.7,67.1,72.9,68.6,64.9,97,88,58,30.03,29.93,3,1,6,0.57
2013-7-29,81.8,71.9,61.9,69.9,60.8,52.3,95,70,42,30.21,30.02,3,0,6,0.01
2013-7-30,84.0,71.9,62.8,66.0,60.6,53.6,86,69,48,30.27,30.18,3,0,8,0.00
2013-7-31,77.9,70.2,64.3,70.4,65.8,61.4,96,86,71,30.19,30.05,2,0,5,0.06